TimePST,TemperatureF,Dew PointF,Humidity,Sea Level PressureIn,VisibilityMPH,Wind Direction,Wind SpeedMPH,Gust SpeedMPH,PrecipitationIn,Events,Conditions,WindDirDegrees,DateUTC
12:56 AM,34.0,14.0,44,30.33,10.0,SE,6.9,-,N/A,,Clear,140,2013-01-19 08:56:00
1:56 AM,32.9,14.0,46,30.35,10.0,Calm,Calm,-,N/A,,Clear,0,2013-01-19 09:56:00
2:56 AM,36.0,14.0,41,30.33,10.0,Calm,Calm,-,N/A,,Clear,0,2013-01-19 10:56:00
3:56 AM,31.1,14.0,49,30.34,10.0,Calm,Calm,-,N/A,,Clear,0,2013-01-19 11:56:00
4:56 AM,32.9,14.0,46,30.35,10.0,Calm,Calm,-,N/A,,Clear,0,2013-01-19 12:56:00
5:56 AM,30.0,13.1,49,30.38,10.0,Calm,Calm,-,N/A,,Clear,0,2013-01-19 13:56:00
6:56 AM,32.0,13.1,46,30.41,10.0,SSE,9.2,-,N/A,,Clear,150,2013-01-19 14:56:00
7:56 AM,34.0,14.0,44,30.42,10.0,South,6.9,-,N/A,,Clear,190,2013-01-19 15:56:00
8:56 AM,45.9,14.0,28,30.43,10.0,Calm,Calm,-,N/A,,Clear,0,2013-01-19 16:56:00
9:56 AM,48.9,11.1,22,30.43,10.0,Calm,Calm,-,N/A,,Clear,0,2013-01-19 17:56:00
10:56 AM,52.9,10.0,18,30.40,10.0,Calm,Calm,-,N/A,,Clear,0,2013-01-19 18:56:00
11:56 AM,54.9,10.0,17,30.35,10.0,Variable,5.8,-,N/A,,Clear,0,2013-01-19 19:56:00
12:56 PM,56.8,9.1,15,30.33,10.0,North,6.9,-,N/A,,Clear,10,2013-01-19 20:56:00
1:56 PM,57.9,9.1,14,30.31,10.0,North,6.9,-,N/A,,Clear,350,2013-01-19 21:56:00
2:56 PM,59.9,9.1,13,30.29,10.0,Calm,Calm,-,N/A,,Clear,0,2013-01-19 22:56:00
3:56 PM,57.9,9.1,14,30.29,10.0,Calm,Calm,-,N/A,,Clear,0,2013-01-19 23:56:00
4:56 PM,54.0,11.1,18,30.29,10.0,Calm,Calm,-,N/A,,Clear,0,2013-01-20 00:56:00
5:56 PM,46.9,13.1,26,30.31,10.0,SSE,8.1,-,N/A,,Clear,160,2013-01-20 01:56:00
6:56 PM,45.0,12.0,26,30.31,10.0,SSE,9.2,-,N/A,,Clear,160,2013-01-20 02:56:00
7:56 PM,41.9,11.1,28,30.32,10.0,South,9.2,-,N/A,,Clear,180,2013-01-20 03:56:00
8:56 PM,39.9,11.1,31,30.31,10.0,South,6.9,-,N/A,,Clear,180,2013-01-20 04:56:00
9:56 PM,38.8,10.0,31,30.32,10.0,South,6.9,-,N/A,,Clear,190,2013-01-20 05:56:00
10:56 PM,37.9,11.1,33,30.31,10.0,South,10.4,-,N/A,,Clear,170,2013-01-20 06:56:00
11:56 PM,37.9,12.0,35,30.31,10.0,SSE,9.2,-,N/A,,Clear,160,2013-01-20 07:56:00